Tracking 19562 objects as of 21-Mar-2019
HD Live streaming from Space Station
objects crossing your sky now

COSMOS 1850

Track COSMOS 1850 now!
10-day predictions
COSMOS 1850 is classified as:


NORAD ID: 18095
Int'l Code: 1987-049A
Perigee: 777.8 km
Apogee: 798.6 km
Inclination: 74.0 °
Period: 100.5 minutes
Semi major axis: 7159 km
RCS: 2.0926 m2 (large)
Launch date: June 9, 1987
Source: Commonwealth of Independent States (former USSR) (CIS)
Launch site: PLESETSK MISSILE AND SPACE COMPLEX (PKMTR)
aabbcc
Your satellite tracking list
Your tracking list is empty




NASA's NSSDC Master Catalog

Two Line Element Set (TLE):
1 18095U 87049A   19079.72187603 -.00000018  00000-0  28220-5 0  9990
2 18095  74.0394 212.6978 0014499 155.6447 204.5393 14.33195559661101
Source of the keplerian elements: AFSPC